Ludington, MI

4:11 AM EDT on August 27, 2016 (GMT -0400)
Mason County

Weather History for KLDM - February, 2014

Change the Weather History Date:

Friday, February 21, 2014

  Actual Average Record
Temperature  
Mean Temperature 30 °F -  
Max Temperature 36 °F 36 °F 48 °F (1992)
Min Temperature 23 °F 21 °F -6 °F (1977)
Degree Days  
Heating Degree Days 35    
Moisture  
Dew Point 23 °F    
Average Humidity 78    
Maximum Humidity 92    
Minimum Humidity 60    
Precipitation  
Precipitation 0.03 in - - ()
Sea Level Pressure  
Sea Level Pressure 29.37 in    
Wind  
Wind Speed 26 mph (SW)    
Max Wind Speed 31 mph    
Max Gust Speed 44 mph    
Visibility 8 miles    
Events Snow    
Averages and records for this station are not official NWS values.
T = Trace of Precipitation, MM = Missing Value Source: NWS Daily Summary

Daily Weather History Graph

Daily Weather History Graph

Search for Another Location

Airport or City:

Trip Planner

Search our weather history database for the weather conditions in past years. The results will help you decide how hot, cold, wet, or windy it might be!

Date:

Astronomy

Feb. 21, 2014 Rise Set
Actual Time 7:35 AM EST 6:23 PM EST
Civil Twilight 7:06 AM EST 6:52 PM EST
Nautical Twilight 6:32 AM EST 7:26 PM EST
Astronomical Twilight 5:59 AM EST 7:59 PM EST
Moon 12:29 AM EST (2/21) 10:45 AM EST (2/21)
Length of Visible Light 11h 46m
Length of Day
10h 48m
Waning Gibbous, 61% of the Moon is Illuminated
Feb 21
Waning Gibbous
Feb 22
Last Quarter
Mar 1
New
Mar 8
First Quarter
Mar 16
Full

Hourly Weather History & Observations

Time (EST) Temp. Windchill Dew Point Humidity Pressure Visibility Wind Dir Wind Speed Gust Speed Precip Events Conditions
12:15 AM 36.7 °F 24.0 °F 33.1 °F 87% 29.21 in 10.0 mi SSW 29.9 mph 35.7 mph N/A   Overcast
12:34 AM 36.7 °F 26.0 °F 32.4 °F 84% 29.21 in 10.0 mi SSW 20.7 mph 32.2 mph N/A   Overcast
12:55 AM 36.7 °F 26.0 °F 32.0 °F 83% 29.19 in 10.0 mi South 20.7 mph 34.5 mph N/A   Overcast
1:15 AM 36.7 °F 25.1 °F 32.0 °F 83% 29.19 in 10.0 mi South 24.2 mph 33.4 mph N/A   Overcast
1:34 AM 36.7 °F 25.1 °F 32.0 °F 83% 29.19 in 10.0 mi South 24.2 mph 35.7 mph N/A   Overcast
1:55 AM 35.6 °F 23.4 °F 31.1 °F 84% 29.19 in 10.0 mi SSW 25.3 mph 35.7 mph N/A   Overcast
2:15 AM 35.6 °F 23.4 °F 31.1 °F 84% 29.18 in 10.0 mi South 25.3 mph 32.2 mph N/A   Overcast
2:34 AM 35.6 °F 23.2 °F 31.1 °F 84% 29.18 in 10.0 mi SSW 26.5 mph 38.0 mph N/A   Overcast
2:55 AM 34.9 °F 22.5 °F 30.9 °F 85% 29.17 in 10.0 mi SSW 25.3 mph 36.8 mph N/A   Overcast
3:14 AM 34.9 °F 22.2 °F 30.7 °F 85% 29.17 in 10.0 mi SSW 26.5 mph 34.5 mph N/A   Overcast
3:35 AM 35.6 °F 23.2 °F 30.9 °F 83% 29.18 in 10.0 mi SSW 26.5 mph 38.0 mph N/A   Overcast
3:55 AM 34.7 °F 21.5 °F 30.6 °F 85% 29.19 in 10.0 mi SSW 28.8 mph 42.6 mph N/A   Overcast
4:14 AM 34.2 °F 21.0 °F 30.0 °F 85% 29.20 in 10.0 mi SSW 27.6 mph 43.7 mph N/A   Overcast
4:35 AM 34.2 °F 21.0 °F 30.2 °F 85% 29.21 in 10.0 mi SSW 27.6 mph 39.1 mph N/A   Overcast
4:55 AM 34.2 °F 21.5 °F 30.7 °F 87% 29.21 in 10.0 mi SSW 25.3 mph 38.0 mph N/A   Overcast
5:14 AM 34.2 °F 21.3 °F 30.6 °F 87% 29.21 in 10.0 mi SSW 26.5 mph 34.5 mph N/A   Overcast
5:35 AM 34.2 °F 22.1 °F 30.7 °F 87% 29.21 in 10.0 mi SSW 23.0 mph 34.5 mph N/A   Overcast
5:55 AM 34.2 °F 21.3 °F 31.1 °F 89% 29.21 in 10.0 mi SW 26.5 mph 38.0 mph N/A   Overcast
6:14 AM 34.2 °F 21.8 °F 31.1 °F 89% 29.22 in 10.0 mi SW 24.2 mph 36.8 mph N/A   Overcast
6:35 AM 32.0 °F 18.9 °F 27.1 °F 82% 29.23 in 10.0 mi SW 24.2 mph 43.7 mph N/A   Overcast
6:55 AM 32.0 °F 17.4 °F 27.1 °F 82% 29.23 in 7.0 mi SW 31.1 mph 41.4 mph N/A   Overcast
7:14 AM 31.6 °F 17.6 °F 27.3 °F 84% 29.23 in 3.0 mi SW 27.6 mph 40.3 mph N/A Snow Light Snow
7:35 AM 29.3 °F 15.0 °F 25.5 °F 86% 29.24 in 2.5 mi WSW 25.3 mph 42.6 mph N/A Snow Light Snow
7:55 AM 29.3 °F 14.5 °F 25.2 °F 85% 29.25 in 0.8 mi WSW 27.6 mph 40.3 mph N/A Snow Light Snow
8:14 AM 29.3 °F 14.5 °F 26.8 °F 90% 29.26 in 0.2 mi SW 27.6 mph 36.8 mph N/A Snow Snow
8:35 AM 27.1 °F 12.1 °F 25.0 °F 92% 29.27 in 0.2 mi SW 25.3 mph 40.3 mph N/A Snow Snow
8:54 AM 27.0 °F 10.8 °F 23.7 °F 88% 29.28 in 0.2 mi WSW 29.9 mph 42.6 mph N/A Snow Heavy Snow
9:15 AM 27.0 °F 11.0 °F 23.2 °F 86% 29.29 in 0.8 mi SW 28.8 mph 40.3 mph N/A Snow Light Snow
9:35 AM 25.7 °F 8.8 °F 21.2 °F 83% 29.29 in 0.8 mi SW 31.1 mph 42.6 mph N/A Snow Light Snow
9:54 AM 24.4 °F 7.9 °F 21.2 °F 87% 29.30 in 0.5 mi WSW 27.6 mph 35.7 mph N/A Snow Light Snow
10:14 AM 24.4 °F 7.9 °F 21.7 °F 89% 29.31 in 0.5 mi WSW 27.6 mph 34.5 mph N/A Snow Snow
10:35 AM 24.4 °F 8.5 °F 21.2 °F 87% 29.31 in 0.5 mi WSW 25.3 mph 35.7 mph N/A Snow Light Snow
10:54 AM 24.4 °F 8.2 °F 20.1 °F 84% 29.32 in 0.5 mi WSW 26.5 mph 36.8 mph N/A Snow Light Snow
11:15 AM 24.4 °F 7.6 °F 19.0 °F 80% 29.32 in 3.0 mi WSW 28.8 mph 36.8 mph N/A   Haze
11:34 AM 24.4 °F 7.6 °F 18.9 °F 79% 29.33 in 2.5 mi SW 28.8 mph 39.1 mph N/A   Haze
11:55 AM 24.4 °F 7.6 °F 18.5 °F 78% 29.34 in 4.0 mi WSW 28.8 mph 41.4 mph N/A   Haze
12:15 PM 24.4 °F 9.2 °F 18.5 °F 78% 29.36 in 5.0 mi WSW 23.0 mph 38.0 mph N/A   Haze
12:34 PM 24.4 °F 7.9 °F 18.5 °F 78% 29.36 in 5.0 mi WSW 27.6 mph 40.3 mph N/A   Haze
12:55 PM 24.4 °F 7.9 °F 18.1 °F 77% 29.36 in 5.0 mi WSW 27.6 mph 39.1 mph N/A   Haze
1:15 PM 24.4 °F 7.6 °F 18.9 °F 79% 29.37 in 7.0 mi WSW 28.8 mph 39.1 mph N/A   Overcast
1:34 PM 25.0 °F 8.9 °F 18.9 °F 78% 29.37 in 10.0 mi WSW 26.5 mph 35.7 mph N/A   Overcast
1:55 PM 24.4 °F 8.2 °F 18.5 °F 78% 29.38 in 10.0 mi WSW 26.5 mph 38.0 mph N/A   Overcast
2:15 PM 24.4 °F 7.9 °F 18.3 °F 78% 29.39 in 7.0 mi WSW 27.6 mph 39.1 mph N/A   Overcast
2:34 PM 24.4 °F 8.2 °F 18.1 °F 77% 29.40 in 10.0 mi WSW 26.5 mph 35.7 mph N/A   Overcast
2:55 PM 25.5 °F 9.1 °F 18.9 °F 76% 29.41 in 10.0 mi WSW 28.8 mph 40.3 mph N/A   Overcast
3:15 PM 26.6 °F 10.8 °F 19.9 °F 76% 29.42 in 10.0 mi WSW 27.6 mph 38.0 mph N/A   Overcast
3:34 PM 27.0 °F 11.3 °F 20.5 °F 77% 29.42 in 10.0 mi WSW 27.6 mph 38.0 mph N/A   Overcast
3:55 PM 27.0 °F 12.2 °F 19.8 °F 74% 29.44 in 10.0 mi WSW 24.2 mph 36.8 mph N/A   Overcast
4:15 PM 27.0 °F 11.3 °F 19.8 °F 74% 29.44 in 10.0 mi WSW 27.6 mph 38.0 mph N/A   Overcast
4:34 PM 28.4 °F 13.5 °F 21.2 °F 74% 29.45 in 10.0 mi West 26.5 mph 40.3 mph N/A   Overcast
4:55 PM 29.3 °F 15.3 °F 22.5 °F 76% 29.46 in 10.0 mi WSW 24.2 mph 39.1 mph N/A   Overcast
5:15 PM 29.3 °F 15.3 °F 21.7 °F 73% 29.47 in 10.0 mi WSW 24.2 mph 36.8 mph N/A   Overcast
5:34 PM 29.3 °F 15.9 °F 21.2 °F 72% 29.48 in 10.0 mi WSW 21.9 mph 34.5 mph N/A   Overcast
5:55 PM 29.3 °F 15.6 °F 20.7 °F 70% 29.49 in 10.0 mi WSW 23.0 mph 35.7 mph N/A   Overcast
6:15 PM 29.3 °F 14.7 °F 19.8 °F 68% 29.50 in 10.0 mi WSW 26.5 mph 35.7 mph N/A   Mostly Cloudy
6:34 PM 29.3 °F 14.7 °F 20.1 °F 69% 29.51 in 10.0 mi WSW 26.5 mph 34.5 mph N/A   Mostly Cloudy
6:55 PM 29.3 °F 16.2 °F 19.9 °F 68% 29.52 in 10.0 mi WSW 20.7 mph 34.5 mph N/A   Mostly Cloudy
7:14 PM 29.3 °F 15.0 °F 20.3 °F 69% 29.53 in 10.0 mi WSW 25.3 mph 33.4 mph N/A   Scattered Clouds
7:35 PM 29.3 °F 15.9 °F 19.8 °F 68% 29.55 in 10.0 mi WSW 21.9 mph 34.5 mph N/A   Scattered Clouds
7:55 PM 29.3 °F 15.3 °F 18.7 °F 65% 29.56 in 10.0 mi WSW 24.2 mph 34.5 mph N/A   Mostly Cloudy
8:14 PM 29.3 °F 16.6 °F 19.0 °F 66% 29.57 in 10.0 mi WSW 19.6 mph 36.8 mph N/A   Mostly Cloudy
8:35 PM 29.3 °F 15.9 °F 18.5 °F 64% 29.57 in 10.0 mi WSW 21.9 mph 40.3 mph N/A   Mostly Cloudy
8:55 PM 27.1 °F 13.1 °F 15.1 °F 60% 29.58 in 10.0 mi WSW 21.9 mph 36.8 mph N/A   Mostly Cloudy
9:14 PM 27.0 °F 13.9 °F 15.4 °F 62% 29.59 in 10.0 mi West 18.4 mph 35.7 mph N/A   Mostly Cloudy
9:35 PM 27.0 °F 13.9 °F 15.6 °F 62% 29.61 in 10.0 mi West 18.4 mph 33.4 mph N/A   Mostly Cloudy
9:54 PM 27.0 °F 13.5 °F 15.4 °F 62% 29.62 in 10.0 mi West 19.6 mph 33.4 mph N/A   Mostly Cloudy
10:14 PM 27.0 °F 13.2 °F 16.0 °F 63% 29.63 in 10.0 mi West 20.7 mph 32.2 mph N/A   Overcast
10:35 PM 25.7 °F 12.3 °F 15.1 °F 64% 29.64 in 10.0 mi West 18.4 mph 32.2 mph N/A   Mostly Cloudy
10:54 PM 24.4 °F 10.2 °F 14.0 °F 65% 29.64 in 10.0 mi West 19.6 mph 31.1 mph N/A   Overcast
11:15 PM 24.4 °F 9.5 °F 14.7 °F 67% 29.65 in 10.0 mi WSW 21.9 mph 32.2 mph N/A   Mostly Cloudy
11:35 PM 24.4 °F 11.5 °F 14.9 °F 67% 29.65 in 10.0 mi West 16.1 mph 26.5 mph N/A   Mostly Cloudy
11:54 PM 23.0 °F 8.0 °F 13.6 °F 67% 29.65 in 10.0 mi West 20.7 mph 28.8 mph N/A   Mostly Cloudy